This demonstration page uses our WeatherBlox Daily Observations layout. Learn more.

Left ArrowRight Arrow

Hourly Observations for May 6, 2021

Temp ( °F °C ) Dew Point ( °F °C ) Humidity (%) Winds ( mph kmh ) Pressure ( in mb ) Visibility ( mi km ) Precip ( " mm )
12:53 am 00:53 Clear 35 1.7 31 -0.6 85 85 S 3 6 30.32 1027 10 16.0934 N/A
1:53 am 01:53 Clear 36 2.2 31 -0.6 82 82 NNE 3 6 30.3 1026 10 16.0934 N/A
2:53 am 02:53 Clear 34 1.1 31 -0.6 89 89 N N/A 30.29 1026 10 16.0934 N/A
3:53 am 03:53 Clear 34 1.1 31 -0.6 89 89 N N/A 30.29 1026 10 16.0934 N/A
4:53 am 04:53 Clear 32 undefined 28 -2.2 85 85 N N/A 30.29 1026 10 16.0934 N/A
5:53 am 05:53 Sunny 31 -0.6 28 -2.2 89 89 N N/A 30.29 1026 10 16.0934 N/A
6:53 am 06:53 Sunny 34 1.1 31 -0.6 89 89 ENE 6 9 30.29 1026 10 16.0934 N/A
7:53 am 07:53 Sunny 40 4.4 35 1.7 83 83 ENE 9 15 30.29 1026 10 16.0934 N/A
8:53 am 08:53 Sunny 47 8.3 36 2.2 66 66 ENE 9 15 30.29 1026 10 16.0934 N/A
9:53 am 09:53 Sunny 54 12.2 37 2.8 53 53 E 14 22 30.27 1025 10 16.0934 N/A
10:53 am 10:53 Sunny 58 14.4 36 2.2 44 44 E 13 20 30.24 1024 10 16.0934 N/A
11:53 am 11:53 Sunny 61 16.1 33 0.6 35 35 ENE 14 22 30.23 1024 10 16.0934 N/A
12:53 pm 12:53 Sunny 63 17.2 31 -0.6 30 30 NE 18 30 30.2 1023 10 16.0934 N/A
1:53 pm 13:53 Sunny 64 17.8 32 undefined 30 30 E 16 26 30.16 1022 10 16.0934 N/A
2:53 pm 14:53 Sunny 68 20 33 0.6 27 27 E 17 28 30.14 1021 10 16.0934 N/A
3:53 pm 15:53 Sunny 68 20 31 -0.6 25 25 E 21 33 30.11 1020 10 16.0934 N/A
4:53 pm 16:53 Sunny 68 20 31 -0.6 25 25 E 24 39 30.09 1019 10 16.0934 N/A
5:53 pm 17:53 Sunny 68 20 32 undefined 26 26 E 22 35 30.06 1018 10 16.0934 N/A
6:53 pm 18:53 Sunny 66 18.9 30 -1.1 26 26 E 28 44 30.04 1017 10 16.0934 N/A
7:53 pm 19:53 Sunny 63 17.2 29 -1.7 28 28 E 21 33 30.03 1017 10 16.0934 N/A
8:53 pm 20:53 Clear 59 15 29 -1.7 32 32 E 18 30 30.01 1016 10 16.0934 N/A
9:53 pm 21:53 Clear 55 12.8 30 -1.1 38 38 E 20 31 30 1016 10 16.0934 N/A
10:53 pm 22:53 Clear 56 13.3 32 undefined 40 40 E 24 39 29.98 1015 10 16.0934 N/A
11:53 pm 23:53 Clear 55 12.8 30 -1.1 38 38 E 20 31 29.96 1015 10 16.0934 N/A

Powered by AerisWeather